Simultaneous Nadir Overpasses (SNOs) Predictions

Prediction of SNOs between AURA and NPP Satellite Orbit:

Table of predicted SNOs for the next 14.0 days since TLE Epoch: 8/26/2016
Index Date (AURA) Time (AURA) Lat,Lon (AURA) SZA (AURA ) Date (NPP) Time (NPP) Lat,Lon (NPP) SZA (NPP ) Distance(km) Time Diff (sec)
1 08/28/2016 10:35:15 79.12, -84.60 83.70 08/28/2016 10:34:31 79.12, -84.59 83.73 0.21 44
2 08/28/2016 11:24:34 -79.44, 85.11 96.75 08/28/2016 11:25:07 -79.45, 85.19 96.79 1.75 33
3 08/31/2016 02:51:39 79.27, 32.23 84.39 08/31/2016 02:51:20 79.28, 32.33 84.39 2.06 19
4 08/31/2016 03:41:02 -79.44,-159.04 95.84 08/31/2016 03:42:01 -79.43,-159.17 95.85 2.94 59
5 09/02/2016 18:18:47 -79.00, -21.24 94.32 09/02/2016 18:17:36 -79.00, -21.22 94.27 0.47 71
6 09/02/2016 19:08:06 79.26, 148.04 85.33 09/02/2016 19:08:13 79.26, 147.95 85.34 1.98 7
7 09/05/2016 10:35:10 -79.18, 95.77 93.64 09/05/2016 10:34:24 -79.19, 95.91 93.63 3.01 46
8 09/05/2016 11:24:30 79.40, -95.16 86.07 09/05/2016 11:25:02 79.41, -95.12 86.03 0.87 32
9 09/08/2016 02:51:37 -79.20,-148.22 92.72 09/08/2016 02:51:17 -79.20,-148.23 92.71 0.26 20




NCC Satellite Simultaneous Nadir Overpasses (SNOs) Prediction Service
